Location: Passau
(48.5830°N, 13.4830°E)
Time: 07:32:59
(UTC+02:00)

A-11 Canister half - Visible Passes

Search period start: 24 May 2024 00:00
Search period end: 03 June 2024 00:00
Orbit: 1525 x 1683 km, 47.3° (Epoch: 22 May)

Date Brightness Start Highest point End Pass type
(mag) Time Alt. Az. Time Alt. Az. Time Alt. Az.
24 May 8.9 00:29:51 10° W 00:39:23 84° S 00:49:16 10° E visible
24 May 9.0 02:34:46 10° W 02:44:19 69° SSW 02:54:12 10° ESE visible
24 May 9.0 22:03:48 10° SW 22:12:55 59° SSE 22:22:19 10° ENE visible
25 May 8.9 00:08:06 10° W 00:17:37 84° S 00:27:29 10° E visible
25 May 9.0 02:13:01 10° W 02:22:34 70° SSW 02:32:26 10° ESE visible
25 May 9.6 04:18:12 10° WNW 04:26:39 35° SW 04:35:18 10° SSE visible
25 May 9.1 21:42:09 10° SW 21:51:12 57° SSE 22:00:31 10° ENE visible
25 May 8.9 23:46:21 10° W 23:55:51 83° S 00:05:41 10° E visible
26 May 9.0 01:51:16 10° W 02:00:49 71° SSW 02:10:40 10° ESE visible
26 May 9.5 03:56:24 10° WNW 04:04:56 36° SW 04:13:42 10° SSE visible
26 May 9.1 21:20:29 10° SW 21:29:28 55° SSE 21:38:44 10° ENE visible
26 May 9.0 23:24:37 10° W 23:34:05 83° S 23:43:53 10° E visible
27 May 8.9 01:29:32 10° W 01:39:03 73° SSW 01:48:54 10° ESE visible
27 May 9.4 03:34:37 10° WNW 03:43:14 38° SW 03:52:05 10° SSE visible
27 May 9.0 23:02:53 10° WSW 23:12:19 82° S 23:22:05 10° E visible
28 May 8.9 01:07:47 10° W 01:17:17 74° SSW 01:27:08 10° ESE visible
28 May 9.4 03:12:50 10° WNW 03:21:31 39° SW 03:30:27 10° SSE visible
28 May 9.0 22:41:10 10° WSW 22:50:34 82° S 23:00:18 10° E visible
29 May 8.9 00:46:03 10° W 00:55:32 75° SSW 01:05:22 10° ESE visible
29 May 9.4 02:51:04 10° WNW 02:59:49 41° SW 03:08:48 10° SSE visible
29 May 9.0 22:19:25 10° WSW 22:28:49 81° S 22:38:31 10° E visible
30 May 8.9 00:24:18 10° W 00:33:46 76° SSW 00:43:35 10° ESE visible
30 May 9.3 02:29:18 10° WNW 02:38:06 42° SW 02:47:10 10° SSE visible
30 May 9.0 21:57:41 10° WSW 22:07:03 80° S 22:16:43 10° E visible
31 May 8.9 00:02:33 10° W 00:12:01 77° SSW 00:21:48 10° ESE visible
31 May 9.3 02:07:32 10° WNW 02:16:23 44° SW 02:25:30 10° SSE visible
31 May 10.3 04:15:02 10° W 04:19:28 14° SW 04:23:58 10° SSW visible
31 May 9.0 21:35:57 10° WSW 21:45:18 79° SSE 21:54:55 10° E visible
31 May 8.9 23:40:49 10° W 23:50:16 78° SSW 00:00:02 10° ESE visible
01 Jun 9.2 01:45:46 10° WNW 01:54:40 45° SW 02:03:50 10° SSE visible
01 Jun 10.2 03:52:55 10° W 03:57:48 15° SW 04:02:46 10° SSW visible
01 Jun 9.0 23:19:04 10° W 23:28:30 79° SSW 23:38:15 10° ESE visible
02 Jun 9.2 01:24:00 10° WNW 01:32:57 47° SW 01:41:56 11° SE visible
02 Jun 10.2 03:30:53 10° W 03:36:09 16° SW 03:39:53 13° SSW visible
02 Jun 9.0 22:57:20 10° W 23:06:45 80° S 23:16:28 10° ESE visible
